Breckenridge, TX

2:00 PM CDT on August 27, 2016 (GMT -0500)
Stephens County

Weather History for KBKD - October, 2013

Change the Weather History Date:

Friday, October 11, 2013

  Actual Average (KABI) Record (KABI)
Temperature  
Mean Temperature 80 °F 67 °F  
Max Temperature 90 °F 79 °F 97 °F (1979)
Min Temperature 70 °F 56 °F 40 °F (1946)
Degree Days  
Heating Degree Days 0 2  
Month to date heating degree days 18  
Since 1 July heating degree days 29  
Cooling Degree Days 14 4  
Month to date cooling degree days 60  
Year to date cooling degree days 2331  
Growing Degree Days 30 (Base 50)    
Moisture  
Dew Point 61 °F    
Average Humidity 56    
Maximum Humidity 79    
Minimum Humidity 32    
Precipitation  
Precipitation 0.00 in 0.10 in 1.55 in (2007)
Month to date precipitation 1.00  
Year to date precipitation 20.20  
Sea Level Pressure  
Sea Level Pressure 29.85 in    
Wind  
Wind Speed 12 mph (SSW)    
Max Wind Speed 26 mph    
Max Gust Speed 36 mph    
Visibility 10 miles    
Events      
T = Trace of Precipitation, MM = Missing Value Source: NWS Daily Summary

Daily Weather History Graph

Daily Weather History Graph

Search for Another Location

Airport or City:

Trip Planner

Search our weather history database for the weather conditions in past years. The results will help you decide how hot, cold, wet, or windy it might be!

Date:

Astronomy

Oct. 11, 2013 Rise Set
Actual Time 7:36 AM CDT 7:07 PM CDT
Civil Twilight 7:12 AM CDT 7:31 PM CDT
Nautical Twilight 6:43 AM CDT 8:00 PM CDT
Astronomical Twilight 6:14 AM CDT 8:28 PM CDT
Moon 2:10 PM CDT (10/11) No Moon Set
Length of Visible Light 12h 19m
Length of Day
11h 30m
Waxing Crescent, 47% of the Moon is Illuminated
Oct 11
Waxing Crescent
Oct 11
First Quarter
Oct 18
Full
Oct 26
Last Quarter
Nov 3
New

Hourly Weather History & Observations

Time (CDT) Temp. Heat Index Dew Point Humidity Pressure Visibility Wind Dir Wind Speed Gust Speed Precip Events Conditions
12:15 AM 74.8 °F - 59.0 °F 58% 29.84 in 10.0 mi South 13.8 mph 24.2 mph N/A   Clear
12:35 AM 74.3 °F - 59.0 °F 59% 29.83 in 10.0 mi SSE 12.7 mph 20.7 mph N/A   Clear
12:55 AM 73.9 °F - 59.0 °F 59% 29.83 in 10.0 mi South 12.7 mph 18.4 mph N/A   Clear
1:15 AM 73.8 °F - 59.2 °F 60% 29.82 in 10.0 mi South 12.7 mph 20.7 mph N/A   Clear
1:55 AM 73.0 °F - 60.1 °F 64% 29.82 in 10.0 mi South 16.1 mph 23.0 mph N/A   Clear
2:15 AM 73.0 °F - 60.8 °F 65% 29.81 in 10.0 mi South 15.0 mph 24.2 mph N/A   Clear
2:35 AM 73.0 °F - 61.2 °F 66% 29.81 in 10.0 mi South 17.3 mph 24.2 mph N/A   Clear
2:55 AM 73.4 °F - 61.7 °F 67% 29.81 in 10.0 mi South 21.9 mph 28.8 mph N/A   Clear
3:15 AM 73.0 °F - 61.7 °F 67% 29.80 in 10.0 mi South 19.6 mph 31.1 mph N/A   Clear
3:35 AM 72.9 °F - 61.7 °F 68% 29.80 in 10.0 mi South 20.7 mph 32.2 mph N/A   Clear
3:55 AM 72.5 °F - 61.3 °F 68% 29.80 in 10.0 mi South 24.2 mph 35.7 mph N/A   Clear
4:15 AM 72.5 °F - 61.5 °F 68% 29.80 in 10.0 mi South 26.5 mph 34.5 mph N/A   Clear
4:35 AM 71.8 °F - 61.7 °F 70% 29.80 in 10.0 mi South 20.7 mph 28.8 mph N/A   Clear
4:55 AM 71.8 °F - 61.7 °F 70% 29.86 in 10.0 mi WNW 11.5 mph 19.6 mph N/A   Scattered Clouds
5:15 AM 72.0 °F - 62.1 °F 71% 29.86 in 10.0 mi WSW 8.1 mph - N/A   Mostly Cloudy
5:35 AM 72.5 °F - 62.2 °F 70% 29.88 in 10.0 mi WSW 8.1 mph - N/A   Overcast
5:55 AM 72.3 °F - 62.2 °F 70% 29.87 in 10.0 mi SSW 6.9 mph - N/A   Mostly Cloudy
6:15 AM 72.1 °F - 62.6 °F 72% 29.88 in 10.0 mi South 8.1 mph - N/A   Overcast
6:35 AM 72.0 °F - 62.6 °F 72% 29.88 in 10.0 mi South 5.8 mph - N/A   Overcast
6:55 AM 71.1 °F - 62.6 °F 75% 29.88 in 10.0 mi South 6.9 mph - N/A   Mostly Cloudy
7:15 AM 70.7 °F - 62.6 °F 75% 29.88 in 10.0 mi SSE 5.8 mph - N/A   Clear
7:35 AM 70.3 °F - 63.0 °F 77% 29.88 in 10.0 mi North - - N/A   Clear
7:55 AM 70.3 °F - 63.1 °F 78% 29.89 in 10.0 mi SSE 4.6 mph - N/A   Clear
8:15 AM 70.2 °F - 63.3 °F 79% 29.89 in 10.0 mi SSE 4.6 mph - N/A   Clear
8:35 AM 71.1 °F - 63.5 °F 77% 29.90 in 10.0 mi North - - N/A   Clear
8:55 AM 72.5 °F - 63.9 °F 74% 29.90 in 10.0 mi North - - N/A   Clear
9:15 AM 74.3 °F - 64.4 °F 71% 29.91 in 10.0 mi South 9.2 mph - N/A   Clear
9:35 AM 75.7 °F - 64.6 °F 68% 29.91 in 10.0 mi South 9.2 mph - N/A   Clear
9:55 AM 77.2 °F - 64.4 °F 65% 29.91 in 10.0 mi North - - N/A   Clear
10:15 AM 78.3 °F - 64.4 °F 62% 29.91 in 10.0 mi SSW 11.5 mph - N/A   Clear
10:35 AM 79.9 °F - 64.4 °F 59% 29.91 in 10.0 mi SW 12.7 mph 17.3 mph N/A   Scattered Clouds
10:55 AM 81.5 °F 83.1 °F 64.2 °F 56% 29.91 in 10.0 mi WSW 15.0 mph 21.9 mph N/A   Mostly Cloudy
11:15 AM 81.1 °F 82.5 °F 63.7 °F 55% 29.90 in 10.0 mi SW 15.0 mph 21.9 mph N/A   Mostly Cloudy
11:35 AM 81.7 °F 83.0 °F 63.3 °F 54% 29.90 in 10.0 mi WSW 16.1 mph 19.6 mph N/A   Mostly Cloudy
11:55 AM 83.5 °F 84.5 °F 62.8 °F 50% 29.90 in 10.0 mi SW 13.8 mph 21.9 mph N/A   Mostly Cloudy
12:15 PM 82.9 °F 83.8 °F 62.6 °F 50% 29.89 in 10.0 mi WSW 13.8 mph 18.4 mph N/A   Mostly Cloudy
12:35 PM 84.0 °F 84.9 °F 62.8 °F 49% 29.88 in 10.0 mi West 9.2 mph 21.9 mph N/A   Overcast
12:55 PM 84.6 °F 85.0 °F 61.9 °F 46% 29.88 in 10.0 mi WSW 10.4 mph 21.9 mph N/A   Mostly Cloudy
1:15 PM 86.0 °F 86.3 °F 61.7 °F 44% 29.87 in 10.0 mi WSW 9.2 mph 20.7 mph N/A   Mostly Cloudy
1:35 PM 88.5 °F 88.1 °F 60.3 °F 38% 29.86 in 10.0 mi WSW 13.8 mph 23.0 mph N/A   Mostly Cloudy
1:55 PM 86.5 °F 86.3 °F 60.4 °F 41% 29.85 in 10.0 mi WSW 12.7 mph 20.7 mph N/A   Mostly Cloudy
2:15 PM 88.3 °F 87.8 °F 59.9 °F 38% 29.84 in 10.0 mi WSW 15.0 mph 20.7 mph N/A   Mostly Cloudy
2:35 PM 86.4 °F 85.9 °F 59.5 °F 40% 29.83 in 10.0 mi WSW 12.7 mph - N/A   Scattered Clouds
2:55 PM 88.0 °F 87.4 °F 59.2 °F 38% 29.83 in 10.0 mi WSW 10.4 mph - N/A   Scattered Clouds
3:15 PM 88.2 °F 87.6 °F 59.5 °F 38% 29.82 in 10.0 mi SW 8.1 mph 19.6 mph N/A   Scattered Clouds
3:35 PM 89.8 °F 88.9 °F 58.5 °F 35% 29.82 in 10.0 mi WSW 9.2 mph 17.3 mph N/A   Scattered Clouds
3:55 PM 87.6 °F 86.7 °F 58.1 °F 37% 29.81 in 10.0 mi WSW 8.1 mph 18.4 mph N/A   Scattered Clouds
4:15 PM 87.6 °F 86.7 °F 58.3 °F 37% 29.81 in 10.0 mi SSW 9.2 mph - N/A   Scattered Clouds
4:35 PM 88.3 °F 87.3 °F 58.1 °F 36% 29.81 in 10.0 mi SW 9.2 mph 18.4 mph N/A   Scattered Clouds
4:55 PM 89.8 °F 88.6 °F 57.6 °F 34% 29.81 in 10.0 mi WSW 11.5 mph 19.6 mph N/A   Scattered Clouds
5:15 PM 89.2 °F 87.7 °F 57.0 °F 33% 29.81 in 10.0 mi SW 9.2 mph - N/A   Scattered Clouds
5:35 PM 89.1 °F 87.5 °F 56.5 °F 33% 29.81 in 10.0 mi WSW 12.7 mph 16.1 mph N/A   Clear
5:55 PM 89.2 °F 87.5 °F 56.1 °F 32% 29.81 in 10.0 mi SW 11.5 mph - N/A   Scattered Clouds
6:15 PM 88.3 °F 86.9 °F 56.3 °F 34% 29.81 in 10.0 mi North - - N/A   Scattered Clouds
6:35 PM 87.3 °F 85.9 °F 56.3 °F 35% 29.81 in 10.0 mi SW 9.2 mph - N/A   Clear
6:55 PM 85.6 °F 84.7 °F 57.2 °F 38% 29.81 in 10.0 mi SW 5.8 mph - N/A   Clear
7:15 PM 83.8 °F 83.1 °F 57.4 °F 40% 29.82 in 10.0 mi SSW 5.8 mph - N/A   Clear
7:35 PM 82.8 °F 82.4 °F 57.6 °F 42% 29.83 in 10.0 mi South 6.9 mph - N/A   Clear
7:55 PM 82.8 °F 82.4 °F 57.2 °F 42% 29.83 in 10.0 mi South 6.9 mph - N/A   Clear
8:15 PM 81.7 °F 81.6 °F 57.6 °F 44% 29.83 in 10.0 mi South 8.1 mph - N/A   Clear
8:35 PM 79.7 °F - 58.3 °F 48% 29.84 in 10.0 mi SSE 10.4 mph - N/A   Clear
8:55 PM 78.3 °F - 59.2 °F 52% 29.84 in 10.0 mi SSE 9.2 mph - N/A   Clear
9:15 PM 79.0 °F - 60.1 °F 52% 29.85 in 10.0 mi SSE 8.1 mph - N/A   Clear
9:35 PM 79.0 °F - 60.8 °F 54% 29.85 in 10.0 mi SSE 9.2 mph - N/A   Clear
9:55 PM 77.7 °F - 61.3 °F 57% 29.86 in 10.0 mi SSE 8.1 mph - N/A   Clear
10:15 PM 77.5 °F - 62.4 °F 59% 29.86 in 10.0 mi SSE 9.2 mph - N/A   Clear
10:35 PM 77.5 °F - 63.1 °F 61% 29.87 in 10.0 mi SSE 8.1 mph - N/A   Clear
10:55 PM 77.2 °F - 63.7 °F 63% 29.87 in 10.0 mi SSE 8.1 mph - N/A   Clear
11:15 PM 77.0 °F - 64.0 °F 64% 29.88 in 10.0 mi SSE 8.1 mph - N/A   Clear
11:35 PM 76.5 °F - 64.4 °F 66% 29.88 in 10.0 mi SSE 6.9 mph - N/A   Clear
11:55 PM 75.9 °F - 64.4 °F 67% 29.88 in 10.0 mi SSE 8.1 mph - N/A   Clear